User: anonymous   Login
Location: Jackson
(42.2460°N, 84.4010°W)
Time: 23:06:40
(UTC-04:00)
Language:

ZACube-1 - Orbit

View from above orbital plane
View from above orbital plane
View from above satellite
View from above satellite

Ground track
Ground track

The orbit is defined by the following mean orbital elements,

1 39417U          26075.86616470 +.00000000 +00000-0 +26382-3 0 00009
2 39417  97.8156  37.7248 0043381 196.1948 163.7891 15.00396719    06
Epoch (UTC): 16 March 2026 20:47:16
Eccentricity: 0.0043381
inclination: 97.8156°
perigee height: 536 km
apogee height: 596 km
right ascension of ascending node: 37.7248°
argument of perigee: 196.1948°
revolutions per day: 15.00396719
mean anomaly at epoch: 163.7891°

The dashed part of the orbit path shows where the satellite is in the earth's shadow,  

DLR